Henderson, KY

9:52 PM CDT on July 15, 2019 (GMT -0500)
Henderson City-County

Weather History for KEHR - May, 2019

Change the Weather History Date:

Tuesday, May 21, 2019

  Actual Average Record
Temperature  
Mean Temperature 70 °F -  
Max Temperature 84 °F 79 °F 95 °F (1941)
Min Temperature 55 °F 57 °F 39 °F (1954)
Cooling Degree Days 4    
Growing Degree Days 20 (Base 50)    
Moisture  
Dew Point 60 °F    
Average Humidity 70    
Maximum Humidity 86    
Minimum Humidity 56    
Precipitation  
Precipitation 0.01 in - - ()
Sea Level Pressure  
Sea Level Pressure 29.88 in    
Wind  
Wind Speed 12 mph (East)    
Max Wind Speed 17 mph    
Max Gust Speed 20 mph    
Visibility 9 miles    
Events Rain    
Averages and records for this station are not official NWS values.
T = Trace of Precipitation, MM = Missing Value Source: NWS Daily Summary

Daily Weather History Graph

Daily Weather History Graph

Search for Another Location

Airport or City:

Astronomy

May. 21, 2019 Rise Set
Actual Time 5:36 AM CDT 7:58 PM CDT
Civil Twilight 5:06 AM CDT 8:28 PM CDT
Nautical Twilight 4:29 AM CDT 9:05 PM CDT
Astronomical Twilight 3:49 AM CDT 9:46 PM CDT
Moon 10:53 PM CDT (5/21) 7:52 AM CDT (5/21)
Length of Visible Light 15h 22m
Length of Day
14h 22m
Waning Gibbous, 91% of the Moon is Illuminated
May 21
Waning Gibbous
May 26
Last Quarter
Jun 3
New
Jun 10
First Quarter
Jun 17
Full

Hourly Weather History & Observations

Time (CDT) Temp. Heat Index Dew Point Humidity Pressure Visibility Wind Dir Wind Speed Gust Speed Precip Events Conditions
12:56 AM 59.0 °F - 52.0 °F 78% 29.99 in 10.0 mi NE 12.7 mph - N/A   Clear
2:56 AM 57.0 °F - 52.0 °F 83% 29.95 in 10.0 mi ENE 17.3 mph - N/A   Clear
3:56 AM 55.9 °F - 50.0 °F 80% 29.94 in 10.0 mi East 16.1 mph - N/A   Clear
4:56 AM 55.9 °F - 50.0 °F 80% 29.96 in 10.0 mi ENE 12.7 mph - N/A   Partly Cloudy
5:56 AM 55.9 °F - 50.0 °F 80% 29.99 in 10.0 mi ENE 12.7 mph - N/A   Clear
6:56 AM 55.9 °F - 50.0 °F 80% 30.01 in 10.0 mi NE 10.4 mph - 0.00 in Rain Light Rain
7:56 AM 55.0 °F - 51.1 °F 86% 29.99 in 10.0 mi ENE 13.8 mph - 0.00 in Rain Light Rain
8:56 AM 57.0 °F - 52.0 °F 83% 29.98 in 10.0 mi East 12.7 mph 19.6 mph 0.01 in Rain Light Rain
9:56 AM 60.1 °F - 53.1 °F 78% 29.96 in 10.0 mi East 12.7 mph - 0.00 in   Mostly Cloudy
10:56 AM 66.9 °F - 55.9 °F 68% 29.94 in 10.0 mi East 11.5 mph 17.3 mph N/A   Clear
11:56 AM 71.1 °F - 57.9 °F 63% 29.91 in 10.0 mi ESE 9.2 mph - N/A   Partly Cloudy
12:56 PM 75.0 °F - 60.1 °F 60% 29.90 in 10.0 mi East 11.5 mph - N/A   Clear
1:56 PM 79.0 °F - 63.0 °F 58% 29.88 in 10.0 mi ESE 8.1 mph - N/A   Clear
2:56 PM 81.0 °F 82.7 °F 64.9 °F 58% 29.86 in 10.0 mi ESE 9.2 mph - N/A   Clear
3:56 PM 82.9 °F 85.0 °F 66.0 °F 56% 29.83 in 10.0 mi East 10.4 mph 17.3 mph N/A   Clear
4:56 PM 82.9 °F 85.4 °F 66.9 °F 58% 29.81 in 4.0 mi ESE 9.2 mph 18.4 mph N/A   Haze
5:56 PM 84.0 °F 86.5 °F 66.9 °F 56% 29.78 in 5.0 mi ESE 11.5 mph 17.3 mph N/A   Haze
6:34 PM 82.4 °F 85.4 °F 68.0 °F 62% 29.77 in 2.5 mi ESE 9.2 mph 16.1 mph N/A   Haze
6:43 PM 82.4 °F 85.4 °F 68.0 °F 62% 29.77 in 4.0 mi ESE 9.2 mph - N/A   Haze
6:56 PM 82.9 °F 85.8 °F 68.0 °F 60% 29.77 in 9.0 mi ESE 6.9 mph - N/A   Clear
7:56 PM 80.1 °F 82.7 °F 68.0 °F 67% 29.77 in 10.0 mi ESE 9.2 mph - N/A   Clear
8:56 PM 78.1 °F - 66.9 °F 68% 29.79 in 10.0 mi SE 6.9 mph - N/A   Clear
9:56 PM 75.9 °F - 66.9 °F 74% 29.79 in 10.0 mi ESE 5.8 mph - N/A   Clear
10:56 PM 75.0 °F - 66.0 °F 73% 29.79 in 10.0 mi ESE 10.4 mph - N/A   Clear
11:56 PM 73.9 °F - 64.9 °F 73% 29.82 in 10.0 mi ESE 5.8 mph - N/A   Clear